Year,Month,Day,Hour,Minute,Value (Times are PST for temperature in C)
2016,08,08,00,00,12.50
2016,08,08,00,01,12.50
2016,08,08,00,02,12.50
2016,08,08,00,03,12.50
2016,08,08,00,04,12.50
2016,08,08,00,05,12.50
2016,08,08,00,06,12.50
2016,08,08,00,07,12.50
2016,08,08,00,08,12.50
2016,08,08,00,09,12.50
2016,08,08,00,10,12.50
2016,08,08,00,11,12.50
2016,08,08,00,12,12.50
2016,08,08,00,13,12.50
2016,08,08,00,14,12.50
2016,08,08,00,15,12.50
2016,08,08,00,16,12.50
2016,08,08,00,17,12.40
2016,08,08,00,18,12.40
2016,08,08,00,19,12.40
2016,08,08,00,20,12.40
2016,08,08,00,21,12.40
2016,08,08,00,22,12.40
2016,08,08,00,23,12.40
2016,08,08,00,24,12.40
2016,08,08,00,25,12.40
2016,08,08,00,26,12.40
2016,08,08,00,27,12.40
2016,08,08,00,28,12.40
2016,08,08,00,29,12.40
2016,08,08,00,30,12.40
2016,08,08,00,31,12.40
2016,08,08,00,32,12.40
2016,08,08,00,33,12.30
2016,08,08,00,34,12.30
2016,08,08,00,35,12.30
2016,08,08,00,36,12.30
2016,08,08,00,37,12.30
2016,08,08,00,38,12.30
2016,08,08,00,39,12.30
2016,08,08,00,40,12.30
2016,08,08,00,41,12.30
2016,08,08,00,42,12.30
2016,08,08,00,43,12.20
2016,08,08,00,44,12.20
2016,08,08,00,45,12.20
2016,08,08,00,46,12.20
2016,08,08,00,47,12.20
2016,08,08,00,48,12.20
2016,08,08,00,49,12.20
2016,08,08,00,50,12.20
2016,08,08,00,51,12.20
2016,08,08,00,52,12.20
2016,08,08,00,53,12.20
2016,08,08,00,54,12.20
2016,08,08,00,55,12.20
2016,08,08,00,56,12.20
2016,08,08,00,57,12.10
2016,08,08,00,58,12.10
2016,08,08,00,59,12.10
2016,08,08,01,00,12.10
2016,08,08,01,01,12.10
2016,08,08,01,02,12.10
2016,08,08,01,03,12.10
2016,08,08,01,04,12.10
2016,08,08,01,05,12.10
2016,08,08,01,06,12.10
2016,08,08,01,07,12.10
2016,08,08,01,08,12.00
2016,08,08,01,09,12.00
2016,08,08,01,10,12.00
2016,08,08,01,11,12.00
2016,08,08,01,12,12.00
2016,08,08,01,13,12.00
2016,08,08,01,14,12.00
2016,08,08,01,15,11.90
2016,08,08,01,16,11.90
2016,08,08,01,17,11.90
2016,08,08,01,18,11.90
2016,08,08,01,19,11.90
2016,08,08,01,20,11.90
2016,08,08,01,21,11.90
2016,08,08,01,22,11.90
2016,08,08,01,23,11.80
2016,08,08,01,24,11.80
2016,08,08,01,25,11.80
2016,08,08,01,26,11.80
2016,08,08,01,27,11.80
2016,08,08,01,28,11.80
2016,08,08,01,29,11.80
2016,08,08,01,30,11.80
2016,08,08,01,31,11.80
2016,08,08,01,32,11.80
2016,08,08,01,33,11.80
2016,08,08,01,34,11.70
2016,08,08,01,35,11.70
2016,08,08,01,36,11.70
2016,08,08,01,37,11.70
2016,08,08,01,38,11.70
2016,08,08,01,39,11.70
2016,08,08,01,40,11.70
2016,08,08,01,41,11.70
2016,08,08,01,42,11.70
2016,08,08,01,43,11.70
2016,08,08,01,44,11.70
2016,08,08,01,45,11.60
2016,08,08,01,46,11.60
2016,08,08,01,47,11.60
2016,08,08,01,48,11.60
2016,08,08,01,49,11.60
2016,08,08,01,50,11.60
2016,08,08,01,51,11.60
2016,08,08,01,52,11.60
2016,08,08,01,53,11.60
2016,08,08,01,54,11.60
2016,08,08,01,55,11.60
2016,08,08,01,56,11.60
2016,08,08,01,57,11.60
2016,08,08,01,58,11.60
2016,08,08,01,59,11.50
2016,08,08,02,00,11.60
2016,08,08,02,01,11.50
2016,08,08,02,02,11.50
2016,08,08,02,03,11.50
2016,08,08,02,04,11.50
2016,08,08,02,05,11.50
2016,08,08,02,06,11.50
2016,08,08,02,07,11.40
2016,08,08,02,08,11.40
2016,08,08,02,09,11.40
2016,08,08,02,10,11.40
2016,08,08,02,11,11.40
2016,08,08,02,12,11.40
2016,08,08,02,13,11.40
2016,08,08,02,14,11.40
2016,08,08,02,15,11.40
2016,08,08,02,16,11.40
2016,08,08,02,17,11.40
2016,08,08,02,18,11.40
2016,08,08,02,19,11.40
2016,08,08,02,20,11.40
2016,08,08,02,21,11.30
2016,08,08,02,22,11.30
2016,08,08,02,23,11.30
2016,08,08,02,24,11.30
2016,08,08,02,25,11.30
2016,08,08,02,26,11.30
2016,08,08,02,27,11.30
2016,08,08,02,28,11.30
2016,08,08,02,29,11.30
2016,08,08,02,30,11.30
2016,08,08,02,31,11.30
2016,08,08,02,32,11.30
2016,08,08,02,33,11.30
2016,08,08,02,34,11.30
2016,08,08,02,35,11.30
2016,08,08,02,36,11.30
2016,08,08,02,37,11.30
2016,08,08,02,38,11.30
2016,08,08,02,39,11.30
2016,08,08,02,40,11.30
2016,08,08,02,41,11.30
2016,08,08,02,42,11.30
2016,08,08,02,43,11.30
2016,08,08,02,44,11.30
2016,08,08,02,45,11.30
2016,08,08,02,46,11.30
2016,08,08,02,47,11.30
2016,08,08,02,48,11.30
2016,08,08,02,49,11.30
2016,08,08,02,50,11.30
2016,08,08,02,51,11.20
2016,08,08,02,52,11.30
2016,08,08,02,53,11.20
2016,08,08,02,54,11.20
2016,08,08,02,55,11.20
2016,08,08,02,56,11.20
2016,08,08,02,57,11.20
2016,08,08,02,58,11.20
2016,08,08,02,59,11.20
2016,08,08,03,00,11.20
2016,08,08,03,01,11.20
2016,08,08,03,02,11.20
2016,08,08,03,03,11.20
2016,08,08,03,04,11.20
2016,08,08,03,05,11.10
2016,08,08,03,06,11.10
2016,08,08,03,07,11.10
2016,08,08,03,08,11.10
2016,08,08,03,09,11.10
2016,08,08,03,10,11.10
2016,08,08,03,11,11.10
2016,08,08,03,12,11.10
2016,08,08,03,13,11.10
2016,08,08,03,14,11.10
2016,08,08,03,15,11.00
2016,08,08,03,16,11.00
2016,08,08,03,17,11.00
2016,08,08,03,18,11.00
2016,08,08,03,19,11.00
2016,08,08,03,20,11.00
2016,08,08,03,21,11.00
2016,08,08,03,22,11.00
2016,08,08,03,23,11.00
2016,08,08,03,24,11.00
2016,08,08,03,25,11.00
2016,08,08,03,26,11.00
2016,08,08,03,27,11.00
2016,08,08,03,28,11.00
2016,08,08,03,29,11.00
2016,08,08,03,30,11.00
2016,08,08,03,31,11.00
2016,08,08,03,32,11.00
2016,08,08,03,33,10.90
2016,08,08,03,34,10.90
2016,08,08,03,35,10.90
2016,08,08,03,36,10.90
2016,08,08,03,37,10.90
2016,08,08,03,38,10.90
2016,08,08,03,39,10.90
2016,08,08,03,40,10.90
2016,08,08,03,41,10.90
2016,08,08,03,42,10.90
2016,08,08,03,43,10.90
2016,08,08,03,44,10.90
2016,08,08,03,45,10.90
2016,08,08,03,46,10.90
2016,08,08,03,47,10.90
2016,08,08,03,48,10.90
2016,08,08,03,49,10.90
2016,08,08,03,50,10.90
2016,08,08,03,51,10.90
2016,08,08,03,52,10.90
2016,08,08,03,53,10.90
2016,08,08,03,54,10.90
2016,08,08,03,55,10.90
2016,08,08,03,56,10.90
2016,08,08,03,57,10.90
2016,08,08,03,58,10.80
2016,08,08,03,59,10.80
2016,08,08,04,00,10.80
2016,08,08,04,01,10.80
2016,08,08,04,02,10.80
2016,08,08,04,03,10.80
2016,08,08,04,04,10.80
2016,08,08,04,05,10.80
2016,08,08,04,06,10.80
2016,08,08,04,07,10.80
2016,08,08,04,08,10.80
2016,08,08,04,09,10.80
2016,08,08,04,10,10.80
2016,08,08,04,11,10.80
2016,08,08,04,12,10.80
2016,08,08,04,13,10.80
2016,08,08,04,14,10.80
2016,08,08,04,15,10.80
2016,08,08,04,16,10.80
2016,08,08,04,17,10.80
2016,08,08,04,18,10.80
2016,08,08,04,19,10.80
2016,08,08,04,20,10.80
2016,08,08,04,21,10.80
2016,08,08,04,22,10.80
2016,08,08,04,23,10.80
2016,08,08,04,24,10.80
2016,08,08,04,25,10.80
2016,08,08,04,26,10.80
2016,08,08,04,27,10.80
2016,08,08,04,28,10.80
2016,08,08,04,29,10.80
2016,08,08,04,30,10.80
2016,08,08,04,31,10.80
2016,08,08,04,32,10.80
2016,08,08,04,33,10.70
2016,08,08,04,34,10.80
2016,08,08,04,35,10.80
2016,08,08,04,36,10.70
2016,08,08,04,37,10.70
2016,08,08,04,38,10.70
2016,08,08,04,39,10.70
2016,08,08,04,40,10.70
2016,08,08,04,41,10.70
2016,08,08,04,42,10.70
2016,08,08,04,43,10.70
2016,08,08,04,44,10.70
2016,08,08,04,45,10.70
2016,08,08,04,46,10.70
2016,08,08,04,47,10.70
2016,08,08,04,48,10.70
2016,08,08,04,49,10.70
2016,08,08,04,50,10.70
2016,08,08,04,51,10.70
2016,08,08,04,52,10.70
2016,08,08,04,53,10.70
2016,08,08,04,54,10.70
2016,08,08,04,55,10.70
2016,08,08,04,56,10.70
2016,08,08,04,57,10.70
2016,08,08,04,58,10.70
2016,08,08,04,59,10.70
2016,08,08,05,00,10.70
2016,08,08,05,01,10.70
2016,08,08,05,02,10.70
2016,08,08,05,03,10.70
2016,08,08,05,04,10.70
2016,08,08,05,05,10.60
2016,08,08,05,06,10.60
2016,08,08,05,07,10.60
2016,08,08,05,08,10.60
2016,08,08,05,09,10.60
2016,08,08,05,10,10.60
2016,08,08,05,11,10.60
2016,08,08,05,12,10.60
2016,08,08,05,13,10.60
2016,08,08,05,14,10.60
2016,08,08,05,15,10.60
2016,08,08,05,16,10.60
2016,08,08,05,17,10.60
2016,08,08,05,18,10.60
2016,08,08,05,19,10.60
2016,08,08,05,20,10.60
2016,08,08,05,21,10.60
2016,08,08,05,22,10.60
2016,08,08,05,23,10.60
2016,08,08,05,24,10.60
2016,08,08,05,25,10.60
2016,08,08,05,26,10.60
2016,08,08,05,27,10.60
2016,08,08,05,28,10.60
2016,08,08,05,29,10.60
2016,08,08,05,30,10.60
2016,08,08,05,31,10.60
2016,08,08,05,32,10.60
2016,08,08,05,33,10.60
2016,08,08,05,34,10.60
2016,08,08,05,35,10.60
2016,08,08,05,36,10.60
2016,08,08,05,37,10.50
2016,08,08,05,38,10.50
2016,08,08,05,39,10.50
2016,08,08,05,40,10.50
2016,08,08,05,41,10.50
2016,08,08,05,42,10.50
2016,08,08,05,43,10.50
2016,08,08,05,44,10.50
2016,08,08,05,45,10.50
2016,08,08,05,46,10.50
2016,08,08,05,47,10.50
2016,08,08,05,48,10.50
2016,08,08,05,49,10.50
2016,08,08,05,50,10.50
2016,08,08,05,51,10.50
2016,08,08,05,52,10.50
2016,08,08,05,53,10.50
2016,08,08,05,54,10.50
2016,08,08,05,55,10.50
2016,08,08,05,56,10.50
2016,08,08,05,57,10.50
2016,08,08,05,58,10.50
2016,08,08,05,59,10.50
2016,08,08,06,00,10.40
2016,08,08,06,01,10.40
2016,08,08,06,02,10.40
2016,08,08,06,03,10.40
2016,08,08,06,04,10.40
2016,08,08,06,05,10.40
2016,08,08,06,06,10.40
2016,08,08,06,07,10.40
2016,08,08,06,08,10.40
2016,08,08,06,09,10.40
2016,08,08,06,10,10.40
2016,08,08,06,11,10.40
2016,08,08,06,12,10.40
2016,08,08,06,13,10.40
2016,08,08,06,14,10.40
2016,08,08,06,15,10.40
2016,08,08,06,16,10.40
2016,08,08,06,17,10.40
2016,08,08,06,18,10.40
2016,08,08,06,19,10.40
2016,08,08,06,20,10.40
2016,08,08,06,21,10.40
2016,08,08,06,22,10.40
2016,08,08,06,23,10.40
2016,08,08,06,24,10.40
2016,08,08,06,25,10.40
2016,08,08,06,26,10.40
2016,08,08,06,27,10.40
2016,08,08,06,28,10.50
2016,08,08,06,29,10.50
2016,08,08,06,30,10.50
2016,08,08,06,31,10.50
2016,08,08,06,32,10.50
2016,08,08,06,33,10.50
2016,08,08,06,34,10.50
2016,08,08,06,35,10.50
2016,08,08,06,36,10.50
2016,08,08,06,37,10.50
2016,08,08,06,38,10.50
2016,08,08,06,39,10.50
2016,08,08,06,40,10.50
2016,08,08,06,41,10.50
2016,08,08,06,42,10.50
2016,08,08,06,43,10.60
2016,08,08,06,44,10.60
2016,08,08,06,45,10.60
2016,08,08,06,46,10.60
2016,08,08,06,47,10.60
2016,08,08,06,48,10.60
2016,08,08,06,49,10.60
2016,08,08,06,50,10.60
2016,08,08,06,51,10.60
2016,08,08,06,52,10.60
2016,08,08,06,53,10.60
2016,08,08,06,54,10.60
2016,08,08,06,55,10.60
2016,08,08,06,56,10.60
2016,08,08,06,57,10.70
2016,08,08,06,58,10.70
2016,08,08,06,59,10.70
2016,08,08,07,00,10.70
2016,08,08,07,01,10.70
2016,08,08,07,02,10.70
2016,08,08,07,03,10.70
2016,08,08,07,04,10.70
2016,08,08,07,05,10.80
2016,08,08,07,06,10.80
2016,08,08,07,07,10.80
2016,08,08,07,08,10.80
2016,08,08,07,09,10.80
2016,08,08,07,10,10.80
2016,08,08,07,11,10.80
2016,08,08,07,12,10.80
2016,08,08,07,13,10.90
2016,08,08,07,14,10.90
2016,08,08,07,15,10.90
2016,08,08,07,16,11.00
2016,08,08,07,17,11.00
2016,08,08,07,18,11.10
2016,08,08,07,19,11.10
2016,08,08,07,20,11.20
2016,08,08,07,21,11.20
2016,08,08,07,22,11.20
2016,08,08,07,23,11.20
2016,08,08,07,24,11.30
2016,08,08,07,25,11.30
2016,08,08,07,26,11.30
2016,08,08,07,27,11.30
2016,08,08,07,28,11.30
2016,08,08,07,29,11.30
2016,08,08,07,30,11.30
2016,08,08,07,31,11.40
2016,08,08,07,32,11.40
2016,08,08,07,33,11.40
2016,08,08,07,34,11.40
2016,08,08,07,35,11.40
2016,08,08,07,36,11.40
2016,08,08,07,37,11.40
2016,08,08,07,38,11.40
2016,08,08,07,39,11.40
2016,08,08,07,40,11.40
2016,08,08,07,41,11.50
2016,08,08,07,42,11.50
2016,08,08,07,43,11.50
2016,08,08,07,44,11.60
2016,08,08,07,45,11.60
2016,08,08,07,46,11.60
2016,08,08,07,47,11.60
2016,08,08,07,48,11.60
2016,08,08,07,49,11.60
2016,08,08,07,50,11.70
2016,08,08,07,51,11.70
2016,08,08,07,52,11.70
2016,08,08,07,53,11.80
2016,08,08,07,54,11.80
2016,08,08,07,55,11.80
2016,08,08,07,56,11.80
2016,08,08,07,57,11.80
2016,08,08,07,58,11.90
2016,08,08,07,59,11.90
2016,08,08,08,00,11.90
2016,08,08,08,01,11.90
2016,08,08,08,02,11.90
2016,08,08,08,03,12.00
2016,08,08,08,04,12.00
2016,08,08,08,05,12.00
2016,08,08,08,06,12.00
2016,08,08,08,07,12.10
2016,08,08,08,08,12.10
2016,08,08,08,09,12.10
2016,08,08,08,10,12.10
2016,08,08,08,11,12.10
2016,08,08,08,12,12.10
2016,08,08,08,13,12.10
2016,08,08,08,14,12.10
2016,08,08,08,15,12.10
2016,08,08,08,16,12.10
2016,08,08,08,17,12.10
2016,08,08,08,18,12.10
2016,08,08,08,19,12.10
2016,08,08,08,20,12.10
2016,08,08,08,21,12.20
2016,08,08,08,22,12.20
2016,08,08,08,23,12.20
2016,08,08,08,24,12.20
2016,08,08,08,25,12.20
2016,08,08,08,26,12.30
2016,08,08,08,27,12.30
2016,08,08,08,28,12.40
2016,08,08,08,29,12.40
2016,08,08,08,30,12.50
2016,08,08,08,31,12.50
2016,08,08,08,32,12.60
2016,08,08,08,33,12.60
2016,08,08,08,34,12.60
2016,08,08,08,35,12.70
2016,08,08,08,36,12.70
2016,08,08,08,37,12.70
2016,08,08,08,38,12.80
2016,08,08,08,39,12.80
2016,08,08,08,40,12.90
2016,08,08,08,41,12.90
2016,08,08,08,42,13.00
2016,08,08,08,43,13.00
2016,08,08,08,44,13.00
2016,08,08,08,45,13.00
2016,08,08,08,46,13.10
2016,08,08,08,47,13.20
2016,08,08,08,48,13.20
2016,08,08,08,49,13.30
2016,08,08,08,50,13.30
2016,08,08,08,51,13.40
2016,08,08,08,52,13.40
2016,08,08,08,53,13.40
2016,08,08,08,54,13.40
2016,08,08,08,55,13.50
2016,08,08,08,56,13.50
2016,08,08,08,57,13.60
2016,08,08,08,58,13.70
2016,08,08,08,59,13.70
2016,08,08,09,00,13.80
2016,08,08,09,01,13.80
2016,08,08,09,02,13.90
2016,08,08,09,03,14.00
2016,08,08,09,04,14.00
2016,08,08,09,05,14.10
2016,08,08,09,06,14.10
2016,08,08,09,07,14.20
2016,08,08,09,08,14.20
2016,08,08,09,09,14.30
2016,08,08,09,10,14.30
2016,08,08,09,11,14.40
2016,08,08,09,12,14.40
2016,08,08,09,13,14.50
2016,08,08,09,14,14.60
2016,08,08,09,15,14.60
2016,08,08,09,16,14.70
2016,08,08,09,17,14.70
2016,08,08,09,18,14.70
2016,08,08,09,19,14.80
2016,08,08,09,20,14.80
2016,08,08,09,21,14.80
2016,08,08,09,22,14.80
2016,08,08,09,23,14.80
2016,08,08,09,24,14.80
2016,08,08,09,25,14.90
2016,08,08,09,26,14.90
2016,08,08,09,27,15.00
2016,08,08,09,28,15.00
2016,08,08,09,29,15.10
2016,08,08,09,30,15.10
2016,08,08,09,31,15.20
2016,08,08,09,32,15.20
2016,08,08,09,33,15.30
2016,08,08,09,34,15.30
2016,08,08,09,35,15.30
2016,08,08,09,36,15.40
2016,08,08,09,37,15.40
2016,08,08,09,38,15.50
2016,08,08,09,39,15.60
2016,08,08,09,40,15.60
2016,08,08,09,41,15.70
2016,08,08,09,42,15.70
2016,08,08,09,43,15.70
2016,08,08,09,44,15.80
2016,08,08,09,45,15.80
2016,08,08,09,46,15.90
2016,08,08,09,47,15.90
2016,08,08,09,48,16.00
2016,08,08,09,49,16.00
2016,08,08,09,50,16.10
2016,08,08,09,51,16.10
2016,08,08,09,52,16.10
2016,08,08,09,53,16.20
2016,08,08,09,54,16.20
2016,08,08,09,55,16.20
2016,08,08,09,56,16.20
2016,08,08,09,57,16.20
2016,08,08,09,58,16.20
2016,08,08,09,59,16.20
2016,08,08,10,00,16.20
2016,08,08,10,01,16.20
2016,08,08,10,02,16.20
2016,08,08,10,03,16.20
2016,08,08,10,04,16.20
2016,08,08,10,05,16.20
2016,08,08,10,06,16.20
2016,08,08,10,07,16.20
2016,08,08,10,08,16.20
2016,08,08,10,09,16.20
2016,08,08,10,10,16.20
2016,08,08,10,11,16.20
2016,08,08,10,12,16.20
2016,08,08,10,13,16.20
2016,08,08,10,14,16.20
2016,08,08,10,15,16.20
2016,08,08,10,16,16.30
2016,08,08,10,17,16.30
2016,08,08,10,18,16.30
2016,08,08,10,19,16.30
2016,08,08,10,20,16.30
2016,08,08,10,21,16.40
2016,08,08,10,22,16.50
2016,08,08,10,23,16.50
2016,08,08,10,24,16.60
2016,08,08,10,25,16.60
2016,08,08,10,26,16.70
2016,08,08,10,27,16.80
2016,08,08,10,28,16.80
2016,08,08,10,29,16.90
2016,08,08,10,30,17.00
2016,08,08,10,31,17.00
2016,08,08,10,32,17.10
2016,08,08,10,33,17.10
2016,08,08,10,34,17.10
2016,08,08,10,35,17.20
2016,08,08,10,36,17.30
2016,08,08,10,37,17.30
2016,08,08,10,38,17.40
2016,08,08,10,39,17.40
2016,08,08,10,40,17.40
2016,08,08,10,41,17.50
2016,08,08,10,42,17.50
2016,08,08,10,43,17.60
2016,08,08,10,44,17.60
2016,08,08,10,45,17.60
2016,08,08,10,46,17.60
2016,08,08,10,47,17.70
2016,08,08,10,48,17.80
2016,08,08,10,49,17.90
2016,08,08,10,50,18.00
2016,08,08,10,51,18.10
2016,08,08,10,52,18.20
2016,08,08,10,53,18.10
2016,08,08,10,54,17.90
2016,08,08,10,55,17.70
2016,08,08,10,56,17.70
2016,08,08,10,57,17.70
2016,08,08,10,58,17.70
2016,08,08,10,59,17.70
2016,08,08,11,00,17.80
2016,08,08,11,01,17.80
2016,08,08,11,02,17.80
2016,08,08,11,03,17.80
2016,08,08,11,04,17.90
2016,08,08,11,05,17.90
2016,08,08,11,06,18.00
2016,08,08,11,07,18.00
2016,08,08,11,08,18.10
2016,08,08,11,09,18.10
2016,08,08,11,10,18.20
2016,08,08,11,11,18.30
2016,08,08,11,12,18.30
2016,08,08,11,13,18.40
2016,08,08,11,14,18.30
2016,08,08,11,15,18.40
2016,08,08,11,16,18.40
2016,08,08,11,17,18.40
2016,08,08,11,18,18.50
2016,08,08,11,19,18.70
2016,08,08,11,20,18.70
2016,08,08,11,21,18.70
2016,08,08,11,22,18.80
2016,08,08,11,23,18.80
2016,08,08,11,24,18.80
2016,08,08,11,25,18.90
2016,08,08,11,26,18.90
2016,08,08,11,27,19.00
2016,08,08,11,28,19.10
2016,08,08,11,29,19.10
2016,08,08,11,30,19.20
2016,08,08,11,31,19.30
2016,08,08,11,32,19.30
2016,08,08,11,33,19.30
2016,08,08,11,34,19.40
2016,08,08,11,35,19.40
2016,08,08,11,36,19.40
2016,08,08,11,37,19.40
2016,08,08,11,38,19.30
2016,08,08,11,39,19.20
2016,08,08,11,40,19.30
2016,08,08,11,41,19.30
2016,08,08,11,42,19.30
2016,08,08,11,43,19.40
2016,08,08,11,44,19.50
2016,08,08,11,45,19.60
2016,08,08,11,46,19.70
2016,08,08,11,47,19.70
2016,08,08,11,48,19.80
2016,08,08,11,49,19.80
2016,08,08,11,50,19.80
2016,08,08,11,51,19.80
2016,08,08,11,52,19.80
2016,08,08,11,53,19.80
2016,08,08,11,54,19.80
2016,08,08,11,55,19.70
2016,08,08,11,56,19.60
2016,08,08,11,57,19.60
2016,08,08,11,58,19.50
2016,08,08,11,59,19.50
2016,08,08,12,00,19.30
2016,08,08,12,01,19.30
2016,08,08,12,02,19.20
2016,08,08,12,03,19.20
2016,08,08,12,04,19.30
2016,08,08,12,05,19.30
2016,08,08,12,06,19.40
2016,08,08,12,07,19.40
2016,08,08,12,08,19.40
2016,08,08,12,09,19.30
2016,08,08,12,10,19.40
2016,08,08,12,11,19.50
2016,08,08,12,12,19.80
2016,08,08,12,13,19.90
2016,08,08,12,14,19.90
2016,08,08,12,15,19.80
2016,08,08,12,16,19.70
2016,08,08,12,17,19.70
2016,08,08,12,18,19.70
2016,08,08,12,19,19.70
2016,08,08,12,20,19.70
2016,08,08,12,21,19.70
2016,08,08,12,22,19.90
2016,08,08,12,23,19.90
2016,08,08,12,24,19.90
2016,08,08,12,25,19.90
2016,08,08,12,26,20.00
2016,08,08,12,27,20.00
2016,08,08,12,28,20.00
2016,08,08,12,29,20.00
2016,08,08,12,30,20.00
2016,08,08,12,31,20.00
2016,08,08,12,32,20.00
2016,08,08,12,33,20.00
2016,08,08,12,34,20.00
2016,08,08,12,35,19.90
2016,08,08,12,36,19.80
2016,08,08,12,37,19.80
2016,08,08,12,38,19.80
2016,08,08,12,39,19.80
2016,08,08,12,40,19.80
2016,08,08,12,41,19.80
2016,08,08,12,42,19.80
2016,08,08,12,43,19.80
2016,08,08,12,44,19.90
2016,08,08,12,45,19.90
2016,08,08,12,46,19.90
2016,08,08,12,47,20.00
2016,08,08,12,48,20.10
2016,08,08,12,49,20.10
2016,08,08,12,50,20.10
2016,08,08,12,51,20.20
2016,08,08,12,52,20.20
2016,08,08,12,53,20.20
2016,08,08,12,54,20.20
2016,08,08,12,55,20.20
2016,08,08,12,56,20.20
2016,08,08,12,57,20.10
2016,08,08,12,58,20.10
2016,08,08,12,59,20.00
2016,08,08,13,00,19.90
2016,08,08,13,01,19.90
2016,08,08,13,02,19.90
2016,08,08,13,03,19.90
2016,08,08,13,04,19.90
2016,08,08,13,05,20.00
2016,08,08,13,06,20.00
2016,08,08,13,07,20.00
2016,08,08,13,08,19.90
2016,08,08,13,09,19.90
2016,08,08,13,10,19.80
2016,08,08,13,11,19.80
2016,08,08,13,12,19.70
2016,08,08,13,13,19.70
2016,08,08,13,14,19.70
2016,08,08,13,15,19.60
2016,08,08,13,16,19.60
2016,08,08,13,17,19.60
2016,08,08,13,18,19.60
2016,08,08,13,19,19.60
2016,08,08,13,20,19.60
2016,08,08,13,21,19.60
2016,08,08,13,22,19.60
2016,08,08,13,23,19.60
2016,08,08,13,24,19.80
2016,08,08,13,25,19.90
2016,08,08,13,26,20.00
2016,08,08,13,27,20.00
2016,08,08,13,28,20.00
2016,08,08,13,29,20.00
2016,08,08,13,30,20.20
2016,08,08,13,31,20.40
2016,08,08,13,32,20.60
2016,08,08,13,33,20.70
2016,08,08,13,34,20.60
2016,08,08,13,35,20.70
2016,08,08,13,36,20.70
2016,08,08,13,37,20.80
2016,08,08,13,38,20.90
2016,08,08,13,39,21.00
2016,08,08,13,40,21.00
2016,08,08,13,41,21.00
2016,08,08,13,42,21.00
2016,08,08,13,43,21.10
2016,08,08,13,44,21.10
2016,08,08,13,45,21.20
2016,08,08,13,46,21.20
2016,08,08,13,47,21.20
2016,08,08,13,48,21.20
2016,08,08,13,49,21.20
2016,08,08,13,50,21.10
2016,08,08,13,51,21.10
2016,08,08,13,52,21.00
2016,08,08,13,53,20.90
2016,08,08,13,54,20.80
2016,08,08,13,55,20.80
2016,08,08,13,56,20.70
2016,08,08,13,57,20.60
2016,08,08,13,58,20.60
2016,08,08,13,59,20.60
2016,08,08,14,00,20.50
2016,08,08,14,01,20.40
2016,08,08,14,02,20.40
2016,08,08,14,03,20.40
2016,08,08,14,04,20.40
2016,08,08,14,05,20.40
2016,08,08,14,06,20.40
2016,08,08,14,07,20.50
2016,08,08,14,08,20.60
2016,08,08,14,09,20.60
2016,08,08,14,10,20.60
2016,08,08,14,11,20.50
2016,08,08,14,12,20.50
2016,08,08,14,13,20.50
2016,08,08,14,14,20.40
2016,08,08,14,15,20.40
2016,08,08,14,16,20.40
2016,08,08,14,17,20.30
2016,08,08,14,18,20.30
2016,08,08,14,19,20.20
2016,08,08,14,20,20.30
2016,08,08,14,21,20.30
2016,08,08,14,22,20.30
2016,08,08,14,23,20.50
2016,08,08,14,24,20.80
2016,08,08,14,25,20.90
2016,08,08,14,26,20.90
2016,08,08,14,27,20.90
2016,08,08,14,28,20.90
2016,08,08,14,29,20.80
2016,08,08,14,30,20.80
2016,08,08,14,31,20.70
2016,08,08,14,32,20.80
2016,08,08,14,33,20.70
2016,08,08,14,34,20.70
2016,08,08,14,35,20.60
2016,08,08,14,36,20.60
2016,08,08,14,37,20.50
2016,08,08,14,38,20.40
2016,08,08,14,39,20.30
2016,08,08,14,40,20.30
2016,08,08,14,41,20.20
2016,08,08,14,42,20.20
2016,08,08,14,43,20.10
2016,08,08,14,44,20.10
2016,08,08,14,45,20.10
2016,08,08,14,46,20.00
2016,08,08,14,47,20.00
2016,08,08,14,48,19.90
2016,08,08,14,49,20.00
2016,08,08,14,50,20.10
2016,08,08,14,51,20.10
2016,08,08,14,52,20.10
2016,08,08,14,53,20.10
2016,08,08,14,54,20.10
2016,08,08,14,55,20.10
2016,08,08,14,56,20.10
2016,08,08,14,57,20.10
2016,08,08,14,58,20.20
2016,08,08,14,59,20.20
2016,08,08,15,00,20.10
2016,08,08,15,01,20.10
2016,08,08,15,02,20.10
2016,08,08,15,03,20.00
2016,08,08,15,04,20.00
2016,08,08,15,05,20.00
2016,08,08,15,06,20.00
2016,08,08,15,07,20.00
2016,08,08,15,08,20.00
2016,08,08,15,09,19.90
2016,08,08,15,10,19.90
2016,08,08,15,11,19.80
2016,08,08,15,12,19.80
2016,08,08,15,13,19.80
2016,08,08,15,14,19.80
2016,08,08,15,15,19.80
2016,08,08,15,16,19.80
2016,08,08,15,17,19.90
2016,08,08,15,18,19.90
2016,08,08,15,19,19.80
2016,08,08,15,20,19.90
2016,08,08,15,21,19.90
2016,08,08,15,22,20.10
2016,08,08,15,23,20.20
2016,08,08,15,24,20.30
2016,08,08,15,25,20.40
2016,08,08,15,26,20.40
2016,08,08,15,27,20.50
2016,08,08,15,28,20.50
2016,08,08,15,29,20.60
2016,08,08,15,30,20.80
2016,08,08,15,31,20.80
2016,08,08,15,32,20.80
2016,08,08,15,33,20.90
2016,08,08,15,34,20.90
2016,08,08,15,35,20.90
2016,08,08,15,36,20.80
2016,08,08,15,37,20.80
2016,08,08,15,38,20.80
2016,08,08,15,39,20.90
2016,08,08,15,40,20.90
2016,08,08,15,41,21.00
2016,08,08,15,42,21.10
2016,08,08,15,43,21.00
2016,08,08,15,44,20.90
2016,08,08,15,45,20.90
2016,08,08,15,46,20.80
2016,08,08,15,47,20.80
2016,08,08,15,48,20.70
2016,08,08,15,49,20.70
2016,08,08,15,50,20.70
2016,08,08,15,51,20.70
2016,08,08,15,52,20.70
2016,08,08,15,53,20.80
2016,08,08,15,54,20.80
2016,08,08,15,55,20.80
2016,08,08,15,56,20.80
2016,08,08,15,57,20.70
2016,08,08,15,58,20.60
2016,08,08,15,59,20.50
2016,08,08,16,00,20.50
2016,08,08,16,01,20.40
2016,08,08,16,02,20.40
2016,08,08,16,03,20.30
2016,08,08,16,04,20.30
2016,08,08,16,05,20.30
2016,08,08,16,06,20.30
2016,08,08,16,07,20.30
2016,08,08,16,08,20.30
2016,08,08,16,09,20.30
2016,08,08,16,10,20.30
2016,08,08,16,11,20.30
2016,08,08,16,12,20.30
2016,08,08,16,13,20.40
2016,08,08,16,14,20.50
2016,08,08,16,15,20.60
2016,08,08,16,16,20.60
2016,08,08,16,17,20.50
2016,08,08,16,18,20.50
2016,08,08,16,19,20.60
2016,08,08,16,20,20.60
2016,08,08,16,21,20.60
2016,08,08,16,22,20.60
2016,08,08,16,23,20.60
2016,08,08,16,24,20.70
2016,08,08,16,25,20.90
2016,08,08,16,26,21.10
2016,08,08,16,27,21.20
2016,08,08,16,28,21.40
2016,08,08,16,29,21.50
2016,08,08,16,30,21.60
2016,08,08,16,31,21.50
2016,08,08,16,32,21.50
2016,08,08,16,33,21.50
2016,08,08,16,34,21.50
2016,08,08,16,35,21.60
2016,08,08,16,36,21.60
2016,08,08,16,37,21.50
2016,08,08,16,38,21.50
2016,08,08,16,39,21.40
2016,08,08,16,40,21.30
2016,08,08,16,41,21.30
2016,08,08,16,42,21.20
2016,08,08,16,43,21.10
2016,08,08,16,44,21.00
2016,08,08,16,45,20.90
2016,08,08,16,46,20.90
2016,08,08,16,47,20.80
2016,08,08,16,48,20.70
2016,08,08,16,49,20.70
2016,08,08,16,50,20.60
2016,08,08,16,51,20.50
2016,08,08,16,52,20.50
2016,08,08,16,53,20.40
2016,08,08,16,54,20.40
2016,08,08,16,55,20.30
2016,08,08,16,56,20.20
2016,08,08,16,57,20.20
2016,08,08,16,58,20.20
2016,08,08,16,59,20.20
2016,08,08,17,00,20.20
2016,08,08,17,01,20.20
2016,08,08,17,02,20.20
2016,08,08,17,03,20.20
2016,08,08,17,04,20.10
2016,08,08,17,05,20.00
2016,08,08,17,06,20.00
2016,08,08,17,07,19.90
2016,08,08,17,08,19.90
2016,08,08,17,09,19.90
2016,08,08,17,10,19.90
2016,08,08,17,11,19.90
2016,08,08,17,12,19.80
2016,08,08,17,13,19.80
2016,08,08,17,14,19.80
2016,08,08,17,15,19.80
2016,08,08,17,16,19.80
2016,08,08,17,17,19.80
2016,08,08,17,18,19.70
2016,08,08,17,19,19.70